SIC0904 EHAM-BIKF

Flight info

Callsign SIC0904
Flight time N/A
Altitude 34000
Route BERGI L602 SUPUR P1 GODOS DCT ROXAT DCT BAZNA DCT ERLOT DCT ROBEM DCT ORSUM DCT BALIX/M082F340 DCT BREKI DCT BASLU BASLU4N
Aircraft B77L/H-SDE2E3GHIJ4J5M1P2RWXYZ/LB1D1

Departure

Time 2026-05-04 07:51
Airport Amsterdam Airport Schiphol (EHAM)

Arrival

Time N/A
Airport Keflavik International Airport (BIKF)
Time Latitude Longitude Altitude Speed Heading
2026-05-04 07:22 52.29557 4.76301 5 ft 0 kts 148°
2026-05-04 07:44 52.29563 4.76295 4 ft 4 kts 146°
2026-05-04 07:45 52.29584 4.76268 5 ft 4 kts 132°
2026-05-04 07:45 52.29600 4.76233 5 ft 4 kts 114°
2026-05-04 07:45 52.29607 4.76192 5 ft 4 kts 90°
2026-05-04 07:45 52.29602 4.76150 5 ft 4 kts 61°
2026-05-04 07:46 52.29600 4.76143 5 ft 1 kts 58°
2026-05-04 07:49 52.30010 4.77114 4 ft 29 kts 59°
2026-05-04 07:49 52.30113 4.77383 3 ft 26 kts 55°
2026-05-04 07:49 52.30247 4.77546 3 ft 24 kts 16°
2026-05-04 07:50 52.30348 4.77567 3 ft 3 kts 357°
2026-05-04 07:50 52.30366 4.77542 2 ft 4 kts 294°
2026-05-04 07:50 52.30358 4.77498 2 ft 4 kts 242°
2026-05-04 07:50 52.30313 4.77379 1 ft 37 kts 237°
2026-05-04 07:51 52.30047 4.76688 2 ft 106 kts 238°
2026-05-04 07:51 52.29549 4.75392 2 ft 161 kts 238°
2026-05-04 07:51 52.28886 4.73706 238 ft 181 kts 236°
2026-05-04 07:51 52.28214 4.71997 877 ft 178 kts 236°
2026-05-04 07:52 52.27537 4.70278 1448 ft 183 kts 237°
2026-05-04 07:52 52.26701 4.68651 1848 ft 197 kts 225°
2026-05-04 07:52 52.25656 4.67005 2082 ft 220 kts 224°
2026-05-04 07:52 52.24498 4.65176 2369 ft 239 kts 230°
2026-05-04 07:53 52.23755 4.62722 2792 ft 249 kts 255°
2026-05-04 07:54 52.30103 4.47746 7676 ft 275 kts 327°
2026-05-04 07:55 52.31749 4.46116 8409 ft 278 kts 327°
2026-05-04 07:55 52.33412 4.44461 9158 ft 281 kts 326°
2026-05-04 07:55 52.35095 4.42795 9874 ft 283 kts 328°
2026-05-04 07:55 52.36967 4.41732 10281 ft 294 kts 351°
2026-05-04 07:56 52.39079 4.41432 10448 ft 316 kts 353°
2026-05-04 07:56 52.41354 4.41122 10649 ft 340 kts 353°
2026-05-04 07:56 52.43792 4.40774 10844 ft 364 kts 353°
2026-05-04 07:56 52.46363 4.40394 11386 ft 376 kts 352°
2026-05-04 07:57 52.48995 4.39995 12116 ft 384 kts 352°
2026-05-04 07:57 52.51669 4.39583 13033 ft 387 kts 352°
2026-05-04 07:57 52.54366 4.39161 13930 ft 391 kts 352°
2026-05-04 07:57 52.57091 4.38730 14692 ft 397 kts 352°
2026-05-04 07:58 52.59861 4.38290 15437 ft 402 kts 352°
2026-05-04 07:58 52.62662 4.37844 16182 ft 407 kts 352°
2026-05-04 07:58 52.65497 4.37392 16928 ft 412 kts 351°
2026-05-04 07:58 52.68366 4.36934 17685 ft 417 kts 351°
2026-05-04 07:59 52.71257 4.36407 18303 ft 416 kts 346°
2026-05-04 07:59 52.73956 4.34748 18713 ft 416 kts 324°
2026-05-04 07:59 52.76154 4.31689 19380 ft 412 kts 308°
2026-05-04 07:59 52.77773 4.27850 20104 ft 405 kts 296°
2026-05-04 08:00 52.79147 4.23760 20725 ft 409 kts 295°
2026-05-04 08:00 52.80506 4.19617 21381 ft 412 kts 295°
2026-05-04 08:00 52.81872 4.15451 22058 ft 415 kts 295°
2026-05-04 08:02 52.91911 3.85397 26065 ft 435 kts 294°
2026-05-04 08:02 52.93381 3.80992 26595 ft 438 kts 293°
2026-05-04 08:02 52.94859 3.76555 27092 ft 441 kts 293°
2026-05-04 08:03 52.96344 3.72091 27658 ft 442 kts 293°
2026-05-04 08:03 52.97829 3.67618 28205 ft 444 kts 292°
2026-05-04 08:03 52.99336 3.63144 28676 ft 446 kts 295°
2026-05-04 08:03 53.01289 3.59025 28963 ft 465 kts 308°
2026-05-04 08:04 53.03850 3.55604 29371 ft 480 kts 319°
2026-05-04 08:04 53.06847 3.53032 29912 ft 492 kts 333°
2026-05-04 08:04 53.10112 3.51258 30493 ft 492 kts 336°
2026-05-04 08:04 53.13374 3.49568 30988 ft 490 kts 336°
2026-05-04 08:05 53.16605 3.47792 31492 ft 488 kts 335°
2026-05-04 08:05 53.19808 3.45947 31950 ft 484 kts 334°
2026-05-04 08:05 53.22817 3.43556 32392 ft 475 kts 323°
2026-05-04 08:05 53.25414 3.40227 32874 ft 468 kts 313°
2026-05-04 08:06 53.27606 3.36284 33290 ft 462 kts 303°
2026-05-04 08:06 53.29360 3.31809 33610 ft 459 kts 298°
2026-05-04 08:06 53.31036 3.27263 33906 ft 461 kts 299°
2026-05-04 08:06 53.32720 3.22727 33961 ft 466 kts 299°
2026-05-04 08:08 53.47639 2.87614 34011 ft 467 kts 308°
2026-05-04 08:11 53.66695 2.50214 34011 ft 467 kts 308°
2026-05-04 08:11 53.72996 2.37672 34031 ft 467 kts 309°
2026-05-04 08:12 53.77184 2.29300 34023 ft 466 kts 308°
2026-05-04 08:12 53.81361 2.20924 34023 ft 465 kts 308°
2026-05-04 08:13 53.85526 2.12542 34026 ft 465 kts 308°
2026-05-04 08:13 53.89685 2.04143 34029 ft 465 kts 309°
2026-05-04 08:14 53.93843 1.95718 34036 ft 466 kts 309°
2026-05-04 08:16 54.10378 1.61924 34050 ft 467 kts 309°
2026-05-04 08:16 54.14521 1.53384 34055 ft 470 kts 310°
2026-05-04 08:17 54.18740 1.44704 34055 ft 480 kts 311°
2026-05-04 08:17 54.23356 1.36318 34048 ft 488 kts 314°
2026-05-04 08:19 54.42231 1.02734 34049 ft 488 kts 315°
2026-05-04 08:20 54.46909 0.94284 34054 ft 488 kts 315°
2026-05-04 08:20 54.51576 0.85828 34057 ft 487 kts 316°
2026-05-04 08:21 54.56228 0.77369 34056 ft 486 kts 316°
2026-05-04 08:21 54.60877 0.68886 34057 ft 486 kts 316°
2026-05-04 08:22 54.65514 0.60395 34062 ft 486 kts 316°
2026-05-04 08:24 54.83222 0.27687 34061 ft 486 kts 316°
2026-05-04 08:24 54.87828 0.19105 34063 ft 486 kts 316°
2026-05-04 08:25 54.92428 0.10504 34062 ft 485 kts 316°
2026-05-04 08:25 54.97015 0.01895 34062 ft 485 kts 316°
2026-05-04 08:27 55.15153 -0.32456 34061 ft 478 kts 316°
2026-05-04 08:28 55.19635 -0.41020 34057 ft 477 kts 316°
2026-05-04 08:28 55.24104 -0.49588 34058 ft 477 kts 316°
2026-05-04 08:29 55.28552 -0.58217 34068 ft 477 kts 313°
2026-05-04 08:31 55.43753 -0.96495 34054 ft 476 kts 308°
2026-05-04 08:33 55.59057 -1.34577 34046 ft 474 kts 308°
2026-05-04 08:35 55.74192 -1.72622 34029 ft 472 kts 308°
2026-05-04 08:35 55.77952 -1.82168 34059 ft 471 kts 307°